[[{"header":{"parameterUnit":"m.s-1","parameterCategory":2,"la1":30.2992,"la2":30.254,"lo1":-89.0895,"lo2":-89.0443,"dy":0.0025,"dx":0.0025,"nx":19,"ny":19,"refTime":"2026-03-12T21:00:00:Z","depth":"0","parameterNumber":2,"parameterNumberName":"U-component_of_CURRENTS"},"data":[0,0,0,0.0875,0.0875,0.0874,0.0874,0.0867,0.0867,0,0,0,0,0,0,0,0,0,0,0,0.0874,0.0874,0.0875,0.0875,0.0874,0.0874,0.0867,0.0867,0,0,0,0,0,0,0,0,0,0,0,0.0874,0.0874,0.0874,0.0875,0.0874,0.0874,0.0867,0.0868,0,0,0,0,0,0,0,0,0,0,0.0869,0.0868,0.0874,0.0874,0.0875,0.0874,0.0874,0.0868,0.0868,0.0867,0,0.087,0,0.0871,0.0867,0.0866,0,0,0,0.087,0.0868,0.0872,0.0874,0.0875,0.0874,0.0873,0.0868,0.0868,0.0867,0.087,0.0869,0.0871,0.0866,0.0866,0.0883,0.0883,0,0,0.087,0.0869,0.0872,0.0872,0.0879,0.0873,0.0873,0.0868,0.0867,0.087,0.0869,0.087,0.0866,0.0866,0.0883,0.0883,0,0,0,0.0874,0.0869,0.0873,0.0872,0.0874,0.0873,0.0873,0.0867,0.0869,0.0869,0.087,0.0866,0.0866,0.0882,0.0883,0.0912,0,0,0,0.0873,0.0872,0.0873,0.0872,0.0874,0.0871,0.0873,0.087,0.0869,0.087,0.0866,0.0866,0.0882,0.0883,0.0911,0.0921,0,0,0,0.0873,0.0872,0.0874,0.0872,0.0874,0.0871,0.0873,0.087,0.087,0.0866,0.0866,0.0882,0.0882,0.091,0.092,0.0953,0,0,0,0.0869,0.0871,0.0874,0.0878,0.0874,0.0882,0.0873,0.0875,0.0873,0.0866,0.0882,0.0883,0.0909,0.0918,0.0951,0.0963,0.0971,0,0,0.0869,0.0871,0.0874,0.0877,0.0887,0.0882,0.0895,0.0889,0.088,0.0882,0.0882,0.0911,0.0919,0.0952,0.099,0.0997,0,0,0,0.0873,0.0875,0.0879,0.0886,0.0893,0.0906,0.09,0.0903,0.0909,0.0883,0.0913,0.0917,0.0937,0.0941,0.0946,0.0898,0.0885,0.0885,0.0885,0.0864,0.0874,0.0882,0.0896,0.0906,0.0921,0.0933,0.0937,0.0925,0.0935,0.0942,0.0988,0.0992,0.0996,0.0946,0.0944,0.0944,0.0945,0.0945,0.0863,0.0865,0.0887,0.0898,0.092,0.0934,0.0963,0.0967,0.0994,0.0971,0.0989,0.0972,0.1004,0.0948,0.0947,0.0946,0.0946,0.0946,0.0946,0.085,0.0852,0.0866,0.0888,0.0915,0.0943,0.0982,0.1004,0.1019,0.1039,0.105,0.1049,0.0999,0.1053,0.1054,0.1054,0.1054,0.1054,0.1054,0.0823,0.0839,0.0849,0.0877,0.0892,0.0932,0.0993,0.1027,0.1075,0.1084,0.1084,0.1009,0.1021,0.1016,0.1057,0.1057,0.1056,0.1056,0.1056,0.0796,0.0808,0.082,0.0835,0.0873,0.0896,0.0973,0.1058,0.1107,0.1134,0.1076,0.1111,0.1105,0.11,0.1097,0.1156,0.1156,0.1156,0.1156,0.0774,0.0782,0.0793,0.0807,0.0835,0.0877,0.0921,0.0998,0.1068,0.1078,0.1089,0.1054,0.1053,0.104,0.1037,0.1031,0.1073,0.1073,0.1072,0.0757,0.0767,0.0763,0.0783,0.0808,0.0845,0.0857,0.0875,0.0984,0.1062,0.102,0.1024,0.0964,0.0965,0.0937,0.0936,0.0923,0,0]},{"header":{"parameterUnit":"m.s-1","parameterCategory":2,"la1":30.2992,"la2":30.254,"lo1":-89.0895,"lo2":-89.0443,"dy":0.0025,"dx":0.0025,"nx":19,"ny":19,"refTime":"2026-03-12T21:00:00:Z","depth":"0","parameterNumber":3,"parameterNumberName":"V-component_of_CURRENTS"},"data":[0,0,0,-0.0273,-0.0274,-0.0283,-0.0283,-0.0272,-0.0272,0,0,0,0,0,0,0,0,0,0,0,-0.0267,-0.0267,-0.0273,-0.0274,-0.0283,-0.0283,-0.0272,-0.0272,0,0,0,0,0,0,0,0,0,0,0,-0.0267,-0.0267,-0.0267,-0.0274,-0.0283,-0.0283,-0.0272,-0.027,0,0,0,0,0,0,0,0,0,0,-0.0264,-0.026,-0.0267,-0.0267,-0.0274,-0.0283,-0.0283,-0.027,-0.027,-0.0262,0,-0.0264,0,-0.027,-0.0271,-0.0271,0,0,0,-0.0271,-0.026,-0.0266,-0.0267,-0.0274,-0.0283,-0.0278,-0.027,-0.027,-0.0262,-0.0264,-0.0264,-0.027,-0.0271,-0.0271,-0.025,-0.025,0,0,-0.027,-0.0265,-0.0266,-0.0266,-0.0276,-0.0277,-0.0278,-0.027,-0.0268,-0.0264,-0.0264,-0.027,-0.0271,-0.0271,-0.025,-0.025,0,0,0,-0.0271,-0.0265,-0.027,-0.0266,-0.027,-0.0278,-0.0278,-0.0268,-0.0271,-0.0264,-0.027,-0.0271,-0.027,-0.025,-0.025,-0.0227,0,0,0,-0.027,-0.0266,-0.027,-0.0267,-0.0271,-0.0273,-0.0277,-0.0272,-0.0271,-0.027,-0.0271,-0.027,-0.025,-0.025,-0.0228,-0.0208,0,0,0,-0.0266,-0.0265,-0.0267,-0.0267,-0.0273,-0.0273,-0.0275,-0.0272,-0.0275,-0.0271,-0.027,-0.025,-0.025,-0.0229,-0.021,-0.0195,0,0,0,-0.026,-0.0254,-0.0267,-0.026,-0.0273,-0.0264,-0.0275,-0.027,-0.0266,-0.0271,-0.025,-0.025,-0.0229,-0.0211,-0.0196,-0.0186,-0.018,0,0,-0.0247,-0.0252,-0.0248,-0.026,-0.0247,-0.0263,-0.0245,-0.0248,-0.0259,-0.0251,-0.0251,-0.0228,-0.021,-0.0195,-0.0169,-0.0164,0,0,0,-0.0241,-0.0236,-0.0235,-0.0232,-0.0233,-0.0224,-0.0232,-0.0236,-0.0235,-0.0256,-0.0228,-0.0217,-0.0209,-0.0205,-0.0201,-0.0313,-0.0249,-0.0249,-0.0249,-0.0209,-0.0213,-0.0198,-0.0199,-0.0193,-0.0196,-0.0191,-0.0196,-0.0213,-0.0212,-0.02,-0.0172,-0.0169,-0.0165,-0.0281,-0.0206,-0.0206,-0.0206,-0.0206,-0.0177,-0.0163,-0.0166,-0.0153,-0.0149,-0.0138,-0.0143,-0.0157,-0.0155,-0.0177,-0.017,-0.0182,-0.0159,-0.0284,-0.0204,-0.0204,-0.0205,-0.0205,-0.0205,-0.0147,-0.0139,-0.0138,-0.0117,-0.0098,-0.0101,-0.0076,-0.0097,-0.0125,-0.012,-0.0123,-0.0124,-0.0233,-0.0121,-0.0121,-0.0121,-0.012,-0.012,-0.012,-0.0113,-0.011,-0.0091,-0.0077,-0.0061,-0.004,-0.0038,-0.0036,-0.0059,-0.0089,-0.0089,-0.0237,-0.0146,-0.0148,-0.0118,-0.0118,-0.0118,-0.0119,-0.0119,-0.0069,-0.0075,-0.0045,-0.0028,0.0009,0.0044,0.0042,0.0038,0.0022,0.0011,-0.0194,-0.0076,-0.008,-0.0084,-0.0085,-0.004,-0.004,-0.004,-0.004,-0.0039,-0.004,-0.0001,0.0031,0.0074,0.0088,0.0117,0.0082,-0.0063,-0.0166,-0.0226,-0.0267,-0.0265,-0.0284,-0.0283,-0.029,-0.0297,-0.0298,-0.0299,-0.0006,-0.0002,0.0032,0.0054,0.0101,0.0136,0.0142,0.0045,-0.0188,-0.0323,-0.0386,-0.0374,-0.0449,-0.0437,-0.0479,-0.0469,-0.0484,0,0]}],[{"header":{"parameterUnit":"m.s-1","parameterCategory":2,"la1":30.2992,"la2":30.254,"lo1":-89.0895,"lo2":-89.0443,"dy":0.0025,"dx":0.0025,"nx":19,"ny":19,"refTime":"2026-03-12T21:00:00:Z","depth":"2","parameterNumber":2,"parameterNumberName":"U-component_of_CURRENTS"},"data":[0,0,0,0.0949,0.0949,0.0948,0.0948,0.0943,0.0943,0,0,0,0,0,0,0,0,0,0,0,0.0948,0.0948,0.0949,0.0949,0.0948,0.0948,0.0943,0.0943,0,0,0,0,0,0,0,0,0,0,0,0.0948,0.0948,0.0948,0.0949,0.0948,0.0948,0.0943,0.0943,0,0,0,0,0,0,0,0,0,0,0.0944,0.0943,0.0948,0.0948,0.0949,0.0948,0.0948,0.0943,0.0943,0.0943,0,0.0946,0,0.0947,0.0943,0.0943,0,0,0,0.0944,0.0943,0.0947,0.0948,0.0949,0.0948,0.0947,0.0943,0.0943,0.0943,0.0946,0.0946,0.0947,0.0943,0.0943,0.096,0.0961,0,0,0.0944,0.0943,0.0947,0.0947,0.0953,0.0947,0.0947,0.0943,0.0942,0.0946,0.0946,0.0947,0.0943,0.0943,0.096,0.096,0,0,0,0.0948,0.0943,0.0947,0.0947,0.0949,0.0948,0.0947,0.0942,0.0945,0.0946,0.0947,0.0943,0.0943,0.096,0.096,0.0988,0,0,0,0.0947,0.0945,0.0947,0.0945,0.0949,0.0946,0.0947,0.0945,0.0945,0.0947,0.0943,0.0943,0.096,0.096,0.0987,0.0997,0,0,0,0.0947,0.0945,0.0947,0.0945,0.0948,0.0946,0.0948,0.0945,0.0946,0.0943,0.0943,0.096,0.096,0.0986,0.0996,0.1028,0,0,0,0.0943,0.0945,0.0947,0.0951,0.0948,0.0957,0.0948,0.095,0.0949,0.0943,0.096,0.096,0.0986,0.0994,0.1026,0.1035,0.1043,0,0,0.0943,0.0944,0.0948,0.0951,0.0962,0.0956,0.0971,0.0964,0.0957,0.0959,0.096,0.0987,0.0995,0.1028,0.1062,0.1069,0,0,0,0.0947,0.0949,0.0953,0.096,0.0968,0.0981,0.0976,0.0979,0.0985,0.0959,0.0989,0.0993,0.1013,0.1015,0.102,0.0962,0.0962,0.0962,0.0962,0.0936,0.0947,0.0956,0.0971,0.0981,0.0997,0.1009,0.1013,0.1001,0.1011,0.1017,0.1062,0.1064,0.1069,0.102,0.102,0.102,0.102,0.102,0.0935,0.0937,0.096,0.0972,0.0994,0.1008,0.1038,0.1042,0.1069,0.1046,0.1064,0.1046,0.1076,0.1022,0.1022,0.1022,0.1021,0.1021,0.1021,0.0921,0.0923,0.0938,0.096,0.0988,0.1016,0.1055,0.1077,0.1092,0.1112,0.1121,0.112,0.1083,0.1125,0.1126,0.1126,0.1126,0.1126,0.1126,0.0893,0.091,0.0919,0.0949,0.0964,0.1003,0.1065,0.1098,0.1144,0.1153,0.1153,0.1098,0.1094,0.1089,0.1129,0.1129,0.1128,0.1128,0.1128,0.0866,0.0877,0.0889,0.0904,0.0943,0.0968,0.1043,0.1126,0.1174,0.1199,0.1181,0.1178,0.1172,0.1168,0.1165,0.1222,0.1222,0.1222,0.1222,0.0842,0.0851,0.0861,0.0876,0.0905,0.095,0.0996,0.1073,0.1155,0.1185,0.1186,0.1155,0.1153,0.1143,0.1138,0.1134,0.1183,0.1182,0.1182,0.0825,0.0835,0.0831,0.0851,0.0878,0.092,0.0941,0.0964,0.1066,0.1177,0.1145,0.1226,0.1182,0.1177,0.1162,0.1156,0.1148,0,0]},{"header":{"parameterUnit":"m.s-1","parameterCategory":2,"la1":30.2992,"la2":30.254,"lo1":-89.0895,"lo2":-89.0443,"dy":0.0025,"dx":0.0025,"nx":19,"ny":19,"refTime":"2026-03-12T21:00:00:Z","depth":"2","parameterNumber":3,"parameterNumberName":"V-component_of_CURRENTS"},"data":[0,0,0,-0.0192,-0.0192,-0.0204,-0.0204,-0.0193,-0.0193,0,0,0,0,0,0,0,0,0,0,0,-0.0185,-0.0185,-0.0192,-0.0192,-0.0204,-0.0204,-0.0193,-0.0193,0,0,0,0,0,0,0,0,0,0,0,-0.0185,-0.0185,-0.0185,-0.0192,-0.0204,-0.0204,-0.0193,-0.019,0,0,0,0,0,0,0,0,0,0,-0.0182,-0.0179,-0.0185,-0.0185,-0.0192,-0.0204,-0.0204,-0.019,-0.019,-0.0182,0,-0.0185,0,-0.0191,-0.0192,-0.0192,0,0,0,-0.0189,-0.0179,-0.0184,-0.0185,-0.0193,-0.0204,-0.0198,-0.019,-0.019,-0.0182,-0.0185,-0.0184,-0.0191,-0.0192,-0.0192,-0.0173,-0.0173,0,0,-0.0188,-0.0184,-0.0184,-0.0184,-0.0196,-0.0197,-0.0198,-0.0191,-0.0189,-0.0185,-0.0184,-0.019,-0.0192,-0.0192,-0.0173,-0.0173,0,0,0,-0.0189,-0.0184,-0.0189,-0.0184,-0.019,-0.0198,-0.0199,-0.0189,-0.0192,-0.0184,-0.019,-0.0192,-0.0192,-0.0173,-0.0173,-0.0152,0,0,0,-0.0188,-0.0184,-0.0189,-0.0186,-0.019,-0.0193,-0.0197,-0.0192,-0.0192,-0.019,-0.0192,-0.0192,-0.0173,-0.0173,-0.0153,-0.0134,0,0,0,-0.0184,-0.0184,-0.0186,-0.0186,-0.0193,-0.0194,-0.0196,-0.0193,-0.0196,-0.0192,-0.0191,-0.0173,-0.0173,-0.0154,-0.0136,-0.0122,0,0,0,-0.0178,-0.0174,-0.0186,-0.0181,-0.0193,-0.0186,-0.0196,-0.0192,-0.0188,-0.0192,-0.0173,-0.0173,-0.0154,-0.0137,-0.0123,-0.0111,-0.0105,0,0,-0.0168,-0.0172,-0.0169,-0.018,-0.0168,-0.0184,-0.0167,-0.0171,-0.0181,-0.0173,-0.0173,-0.0153,-0.0136,-0.0122,-0.0097,-0.0091,0,0,0,-0.0162,-0.0158,-0.0157,-0.0155,-0.0156,-0.0147,-0.0156,-0.016,-0.016,-0.0179,-0.0154,-0.0144,-0.0135,-0.013,-0.0126,-0.0172,-0.0172,-0.0172,-0.0172,-0.0134,-0.0138,-0.0124,-0.0124,-0.0119,-0.0122,-0.0117,-0.0124,-0.0139,-0.014,-0.0128,-0.0103,-0.0098,-0.0094,-0.0135,-0.0135,-0.0134,-0.0134,-0.0134,-0.0106,-0.0093,-0.0095,-0.0083,-0.0079,-0.0069,-0.0073,-0.0088,-0.0087,-0.0107,-0.0101,-0.011,-0.0089,-0.0133,-0.0133,-0.0133,-0.0133,-0.0134,-0.0134,-0.008,-0.0072,-0.0071,-0.0051,-0.0034,-0.0036,-0.0012,-0.0032,-0.006,-0.0055,-0.0056,-0.0056,-0.0085,-0.0056,-0.0056,-0.0056,-0.0056,-0.0056,-0.0056,-0.005,-0.0047,-0.0029,-0.0015,0.0,0.0021,0.0023,0.0025,0.0004,-0.0024,-0.0024,-0.0077,-0.0079,-0.0081,-0.0054,-0.0054,-0.0054,-0.0054,-0.0055,-0.0011,-0.0016,0.0012,0.0028,0.0066,0.0104,0.01,0.0098,0.0082,0.0072,-0.0008,-0.001,-0.0014,-0.0017,-0.0018,0.0024,0.0024,0.0024,0.0024,0.0017,0.0016,0.0053,0.0085,0.0127,0.0147,0.0189,0.0177,0.012,0.008,0.0078,0.0062,0.0057,0.0057,0.0051,0.0052,0.0112,0.0112,0.0112,0.0046,0.0051,0.0083,0.0106,0.0154,0.0198,0.0231,0.02,0.0122,0.0117,0.0102,0.0029,-0.0003,-0.0007,-0.0016,-0.0022,-0.0024,0,0]}],[{"header":{"parameterUnit":"m.s-1","parameterCategory":2,"la1":30.2992,"la2":30.254,"lo1":-89.0895,"lo2":-89.0443,"dy":0.0025,"dx":0.0025,"nx":19,"ny":19,"refTime":"2026-03-12T21:00:00:Z","depth":"4","parameterNumber":2,"parameterNumberName":"U-component_of_CURRENTS"},"data":[0,0,0,0.0854,0.0855,0.0908,0.0908,0.0933,0.0933,0,0,0,0,0,0,0,0,0,0,0,0.0839,0.0839,0.0854,0.0856,0.0908,0.0908,0.0933,0.0933,0,0,0,0,0,0,0,0,0,0,0,0.0838,0.0839,0.084,0.0856,0.0908,0.0908,0.0933,0.0903,0,0,0,0,0,0,0,0,0,0,0.0857,0.0852,0.0839,0.084,0.0856,0.0908,0.0909,0.0902,0.0905,0.0898,0,0.0915,0,0.0925,0.0934,0.0934,0,0,0,0.0852,0.0849,0.0862,0.084,0.0857,0.0908,0.0883,0.0904,0.0907,0.0902,0.0915,0.0916,0.0925,0.0934,0.0935,0.0964,0.0964,0,0,0.0849,0.0847,0.086,0.0865,0.088,0.0882,0.0885,0.0906,0.0913,0.0915,0.0917,0.0925,0.0935,0.0935,0.0964,0.0964,0,0,0,0.0843,0.0845,0.0858,0.0863,0.0877,0.0883,0.0887,0.0913,0.0917,0.0917,0.0926,0.0935,0.0935,0.0964,0.0964,0.0993,0,0,0,0.0841,0.0842,0.0857,0.0856,0.0877,0.0902,0.0893,0.0916,0.0919,0.0926,0.0935,0.0935,0.0963,0.0964,0.0992,0.1,0,0,0,0.0834,0.0841,0.085,0.0856,0.088,0.0902,0.0908,0.0917,0.0923,0.0934,0.0935,0.0963,0.0964,0.0991,0.0999,0.1026,0,0,0,0.0826,0.084,0.085,0.087,0.088,0.0909,0.0908,0.0931,0.0942,0.0935,0.0963,0.0964,0.099,0.0997,0.1024,0.0912,0,0,0,0.0834,0.0841,0.0852,0.0862,0.089,0.0901,0.0932,0.0947,0.0946,0.0952,0.0953,0.0992,0.0998,0.1025,0.0942,0,0,0,0,0.0847,0.0857,0.0868,0.089,0.0911,0.0939,0.0954,0.0963,0.0983,0.0956,0.0994,0.0997,0.1013,0.0943,0.0966,0.0966,0.0966,0.0966,0.0966,0.0846,0.0862,0.0884,0.0909,0.0931,0.0966,0.0988,0.1003,0.0998,0.1014,0.1022,0.1063,0.0991,0.1025,0.1026,0.1026,0.1026,0.1026,0.1026,0.0853,0.0861,0.0895,0.0922,0.0956,0.0987,0.1023,0.1034,0.1066,0.105,0.1065,0.098,0.1029,0.1028,0.1028,0.1028,0.1027,0.1027,0.1027,0.084,0.0845,0.0876,0.0919,0.0963,0.1003,0.1041,0.1071,0.109,0.111,0.1041,0.1086,0.1082,0.1123,0.1124,0.1124,0.1124,0.1124,0.1124,0.0807,0.0837,0.0865,0.0914,0.0943,0.099,0.1055,0.1079,0.1113,0.106,0.1123,0.1096,0.1093,0.1088,0.1127,0.1126,0.1126,0.1126,0.1125,0.0778,0.0802,0.0834,0.0866,0.0925,0.0947,0.1026,0.1043,0.1065,0.105,0.1034,0.1038,0.1018,0.1017,0.1008,0.1025,0.1024,0.1022,0,0.0753,0.0768,0.0807,0.0839,0.0865,0.0917,0.0915,0.0957,0.0984,0.0946,0.1074,0.1056,0.1057,0.1034,0.1031,0.102,0,0,0,0.0735,0.0753,0.0766,0.0808,0.0829,0.085,0.0908,0.0892,0.0971,0.0966,0.099,0.0998,0.1098,0.1134,0.1113,0.1109,0.11,0,0]},{"header":{"parameterUnit":"m.s-1","parameterCategory":2,"la1":30.2992,"la2":30.254,"lo1":-89.0895,"lo2":-89.0443,"dy":0.0025,"dx":0.0025,"nx":19,"ny":19,"refTime":"2026-03-12T21:00:00:Z","depth":"4","parameterNumber":3,"parameterNumberName":"V-component_of_CURRENTS"},"data":[0,0,0,-0.0028,-0.0028,-0.0052,-0.0052,-0.0059,-0.0059,0,0,0,0,0,0,0,0,0,0,0,-0.0018,-0.0018,-0.0028,-0.0028,-0.0052,-0.0052,-0.0059,-0.0059,0,0,0,0,0,0,0,0,0,0,0,-0.0018,-0.0018,-0.0019,-0.0029,-0.0052,-0.0052,-0.0059,-0.0047,0,0,0,0,0,0,0,0,0,0,-0.0027,-0.0021,-0.0018,-0.0019,-0.0029,-0.0052,-0.0052,-0.0047,-0.0048,-0.0042,0,-0.0046,0,-0.0053,-0.0059,-0.0059,0,0,0,-0.0028,-0.0021,-0.0027,-0.0019,-0.0029,-0.0052,-0.0041,-0.0047,-0.0049,-0.0043,-0.0047,-0.0047,-0.0053,-0.0059,-0.0059,-0.0057,-0.0057,0,0,-0.0026,-0.0022,-0.0027,-0.0028,-0.0035,-0.004,-0.0042,-0.0048,-0.0049,-0.0047,-0.0047,-0.0054,-0.0059,-0.0059,-0.0057,-0.0057,0,0,0,-0.0023,-0.0021,-0.0028,-0.0028,-0.0034,-0.0041,-0.0043,-0.0049,-0.0051,-0.0048,-0.0054,-0.0059,-0.0059,-0.0057,-0.0057,-0.004,0,0,0,-0.0022,-0.0019,-0.0027,-0.0025,-0.0034,-0.0045,-0.0043,-0.0051,-0.0052,-0.0054,-0.0059,-0.0059,-0.0057,-0.0057,-0.0041,-0.0025,0,0,0,-0.0017,-0.0018,-0.0022,-0.0024,-0.0035,-0.0045,-0.0048,-0.0051,-0.0055,-0.0059,-0.0059,-0.0057,-0.0057,-0.0041,-0.0026,-0.0016,0,0,0,-0.0011,-0.0011,-0.0021,-0.0022,-0.0035,-0.0037,-0.0048,-0.0053,-0.0055,-0.0059,-0.0057,-0.0057,-0.0041,-0.0027,-0.0016,0.0009,0,0,0,-0.0006,-0.001,-0.001,-0.002,-0.0018,-0.0034,-0.0029,-0.0041,-0.0053,-0.0053,-0.0053,-0.004,-0.0026,-0.0016,0.0012,0,0,0,0,-0.0005,-0.0004,-0.0005,-0.0008,-0.0014,-0.0013,-0.0028,-0.0035,-0.0044,-0.0055,-0.0044,-0.0036,-0.0029,-0.0017,-0.0057,-0.0057,-0.0057,-0.0057,-0.0057,0.0014,0.0009,0.0014,0.001,0.001,-0.0,-0.0002,-0.0014,-0.0029,-0.0034,-0.0025,-0.0008,0.0005,-0.0033,-0.0033,-0.0033,-0.0033,-0.0033,-0.0033,0.003,0.0036,0.0032,0.0036,0.0035,0.0036,0.0025,0.0011,0.0006,-0.0012,-0.0007,-0.0004,-0.0031,-0.0031,-0.0032,-0.0032,-0.0032,-0.0032,-0.0032,0.0048,0.0051,0.0049,0.0058,0.0066,0.0059,0.0074,0.0053,0.0027,0.003,0.0039,0.0006,0.0008,0.0028,0.0029,0.0029,0.0029,0.0029,0.0029,0.0067,0.0067,0.0078,0.0083,0.0093,0.0105,0.0102,0.0102,0.0075,0.0067,0.0036,0.0013,0.0011,0.0012,0.0031,0.003,0.003,0.003,0.003,0.0088,0.0088,0.0106,0.0117,0.0142,0.0153,0.0151,0.0147,0.0147,0.0135,0.0085,0.0082,0.008,0.0077,0.008,0.012,0.0121,0.0121,0,0.0105,0.0105,0.0133,0.0157,0.0187,0.0186,0.0205,0.0198,0.0159,0.0154,0.0139,0.0083,0.008,0.0078,0.0076,0.008,0,0,0,0.0121,0.0126,0.015,0.0171,0.0205,0.0214,0.0212,0.0208,0.0162,0.017,0.0132,0.0129,0.0089,0.0036,0.0026,0.0023,0.0025,0,0]}]]